FW6259 Weather Reports


time (UTC)temp
C
wind
direction
speed
KPH
gust
KPH
rain 1hr
cm
rain 24hr
cm
rain mn
cm
humidity
%
barometer
mb
20260901000051 10 63 11.3 32.2 0.00 0.36 0.23 67 1000.4
20260831234547 10 51 16.1 32.2 0.00 0.36 0.23 67 1000.2
20260831233054 10 58 11.3 29.0 0.00 0.36 0.23 72 1000.1
20260831231602 9 31 16.1 33.8 0.00 0.36 0.23 72 999.8
20260831230051 9 25 11.3 37.0 0.00 0.36 0.23 73 999.6
20260831224629 9 62 16.1 40.2 0.00 0.36 0.23 73 999.3
20260831223051 10 65 16.1 35.4 0.00 0.36 0.23 74 999.2
20260831221553 10 11 11.3 24.1 0.00 0.36 0.23 79 999.1
20260831220059 10 15 8.0 24.1 0.00 0.36 0.23 79 999.0
20260831214554 10 37 8.0 24.1 0.00 0.36 0.23 81 999.1
20260831213049 9 9 9.7 19.3 0.00 0.36 0.23 82 999.0
20260831211608 8 358 6.4 20.9 0.00 0.36 0.23 85 999.2
20260831204547 8 321 3.2 17.7 0.00 0.36 0.23 92 999.2
20260831203059 7 323 4.8 14.5 0.00 0.36 0.23 93 999.2
20260831201558 7 300 6.4 12.9 0.00 0.36 0.23 94 999.4
20260831200049 6 342 6.4 17.7 0.00 0.36 0.23 93 999.6
20260831194612 6 333 1.6 9.7 0.00 0.36 0.23 94 999.7
20260831193059 6 324 3.2 12.9 0.00 0.36 0.23 94 1000.0
20260831191551 6 297 1.6 9.7 0.00 0.36 0.23 95 1000.1
20260831190003 6 333 1.6 6.4 0.00 0.36 0.23 96 1000.4
20260831184556 5 304 0.0 4.8 0.00 0.36 0.23 95 1000.5
20260831183046 5 326 1.6 4.8 0.00 0.36 0.23 95 1000.5
20260831181546 5 354 0.0 3.2 0.00 0.36 0.23 96 1000.8
20260831180055 5 10 0.0 6.4 0.00 0.36 0.23 96 1000.9
20260831174550 5 324 0.0 4.8 0.00 0.36 0.23 96 1001.2
20260831173047 5 25 0.0 3.2 0.00 0.36 0.23 96 1001.4
20260831171557 5 341 0.0 3.2 0.00 0.36 0.23 97 1001.5
20260831170050 5 134 0.0 1.6 0.00 0.36 0.23 97 1001.6
20260831164546 5 134 0.0 0.0 0.00 0.36 0.23 98 1001.6
20260831163059 5 134 0.0 1.6 0.00 0.36 0.23 98 1001.7
20260831161551 4 135 0.0 0.0 0.00 0.36 0.23 98 1002.0
20260831160047 4 150 0.0 0.0 0.00 0.36 0.23 98 1002.2
20260831154606 3 151 0.0 0.0 0.00 0.36 0.23 98 1002.3
20260831153041 3 151 0.0 0.0 0.00 0.36 0.23 98 1002.6
20260831151611 3 151 0.0 0.0 0.00 0.36 0.23 98 1002.7
20260831150049 3 151 0.0 0.0 0.00 0.36 0.23 97 1002.9
20260831144546 3 151 0.0 0.0 0.00 0.36 0.23 97 1003.1
20260831143113 3 151 0.0 0.0 0.00 0.36 0.23 96 1003.2
20260831141550 4 151 0.0 0.0 0.00 0.36 0.23 97 1003.4
20260831140001 4 150 0.0 0.0 0.00 0.36 0.23 97 1003.6
20260831134559 4 150 0.0 0.0 0.00 0.36 0.23 97 1003.9
20260831133046 5 169 0.0 3.2 0.00 0.36 0.23 97 1004.1
20260831131502 5 141 0.0 1.6 0.03 0.36 0.23 97 1004.3
20260831130106 5 164 0.0 3.2 0.03 0.36 0.23 96 1004.5
20260831124558 5 129 0.0 3.2 0.03 0.36 0.23 96 1004.6
20260831123041 5 143 0.0 4.8 0.05 0.36 0.23 96 1004.8
20260831121607 5 147 1.6 4.8 0.03 0.33 0.20 96 1005.0
20260831120050 5 169 1.6 3.2 0.05 0.33 0.20 96 1005.2
20260831114503 5 219 0.0 3.2 0.05 0.33 0.20 96 1005.5
20260831113056 5 238 1.6 4.8 0.08 0.30 0.18 96 1005.6
20260831111555 5 238 0.0 6.4 0.10 0.30 0.18 96 1005.8
20260831110040 6 254 1.6 4.8 0.08 0.28 0.15 96 1006.0
20260831104557 6 219 3.2 6.4 0.10 0.28 0.15 96 1006.0
20260831103053 6 197 3.2 8.0 0.05 0.23 0.10 95 1006.3
20260831101507 6 226 1.6 6.4 0.03 0.20 0.08 95 1006.3
20260831100106 6 196 0.0 6.4 0.05 0.20 0.08 94 1006.5
20260831094610 6 162 0.0 4.8 0.03 0.18 0.05 94 1006.8
20260831093001 6 197 0.0 3.2 0.03 0.18 0.05 93 1006.9
20260831091612 6 143 0.0 3.2 0.05 0.18 0.05 92 1007.0
20260831090052 6 154 0.0 1.6 0.03 0.15 0.03 91 1007.1
20260831084505 6 238 0.0 1.6 0.05 0.15 0.03 92 1007.2
20260831083100 6 98 0.0 1.6 0.08 0.15 0.03 91 1007.4
20260831081555 7 148 0.0 1.6 0.05 0.13 0.00 88 1007.6
20260831080044 7 146 0.0 0.0 0.08 0.13 0.00 91 1007.7
20260831074559 7 259 0.0 8.0 0.08 0.10 0.10 86 1007.9
20260831073051 7 229 1.6 3.2 0.08 0.08 0.08 88 1007.9
20260831071604 7 339 0.0 0.0 0.08 0.08 0.08 81 1008.0
20260831064553 8 148 3.2 8.0 0.03 0.03 0.03 75 1008.2
20260831063041 10 116 6.4 17.7 0.00 0.00 0.00 67 1008.1
20260831061559 8 228 0.0 6.4 0.00 0.00 0.00 69 1008.0
20260831054547 8 129 0.0 0.0 0.00 0.00 0.00 72 1008.3
20260831053101 8 129 0.0 0.0 0.00 0.00 0.00 72 1008.4
20260831051602 8 129 0.0 0.0 0.00 0.00 0.00 72 1008.5
20260831050046 8 225 0.0 1.6 0.00 0.00 0.00 72 1008.7
20260831044600 10 224 0.0 0.0 0.00 0.00 0.00 64 1008.7
20260831043051 10 224 0.0 1.6 0.00 0.00 0.00 70 1008.9
20260831041548 10 224 0.0 0.0 0.00 0.00 0.00 65 1009.2
20260831040002 10 224 0.0 0.0 0.00 0.00 0.00 64 1009.3
20260831034514 11 224 0.0 0.0 0.00 0.00 0.00 70 1009.6
20260831033055 11 224 0.0 0.0 0.00 0.00 0.00 61 1009.7
20260831031544 12 224 0.0 0.0 0.00 0.00 0.00 58 1010.1
20260831030058 12 224 0.0 0.0 0.00 0.00 0.00 54 1010.2
20260831024557 12 224 0.0 1.6 0.00 0.00 0.00 50 1010.4
20260831023044 13 238 0.0 3.2 0.00 0.00 0.00 50 1010.5
20260831021557 13 252 0.0 3.2 0.00 0.00 0.00 51 1010.8
20260831020109 13 238 1.6 4.8 0.00 0.00 0.00 50 1010.9
20260831014545 13 239 0.0 4.8 0.00 0.00 0.00 48 1011.1
20260831013100 13 218 1.6 8.0 0.00 0.00 0.00 47 1011.3
20260831011604 13 201 1.6 6.4 0.00 0.00 0.00 46 1011.4
20260831010043 14 188 1.6 6.4 0.00 0.00 0.00 47 1011.7
20260831004501 14 81 1.6 8.0 0.00 0.00 0.00 46 1012.1
20260831003052 14 258 3.2 6.4 0.00 0.00 0.00 47 1012.1
20260831001548 15 238 3.2 8.0 0.00 0.00 0.00 48 1012.5